SWA1311 KMDW-KPIT

Flight info

Callsign SWA1311
Flight time 0h 50m
Altitude 39000
Route LEWKE GIJ OTENS ANEWA DJB GRIVY JESEY5
Aircraft B736/M-SDE2E3FGHIRWXY/LB1

Departure

Time 2026-05-07 02:20
Airport Chicago Midway International Airport (KMDW)

Arrival

Time 2026-05-07 03:11
Airport Pittsburgh International Airport (KPIT)
Time Latitude Longitude Altitude Speed Heading
2026-05-07 02:02 41.78815 -87.74466 618 ft 2 kts 130°
2026-05-07 02:02 41.78826 -87.74483 619 ft 2 kts 130°
2026-05-07 02:03 41.78836 -87.74499 629 ft 2 kts 130°
2026-05-07 02:03 41.78847 -87.74516 631 ft 2 kts 130°
2026-05-07 02:03 41.78849 -87.74520 620 ft 0 kts 130°
2026-05-07 02:04 41.78849 -87.74519 620 ft 1 kts 133°
2026-05-07 02:04 41.78832 -87.74520 631 ft 4 kts 199°
2026-05-07 02:05 41.78808 -87.74546 621 ft 0 kts 219°
2026-05-07 02:05 41.78806 -87.74548 626 ft 0 kts 221°
2026-05-07 02:09 41.78799 -87.74558 625 ft 3 kts 228°
2026-05-07 02:09 41.78794 -87.74609 619 ft 8 kts 271°
2026-05-07 02:10 41.78783 -87.74678 626 ft 8 kts 225°
2026-05-07 02:10 41.78782 -87.74680 625 ft 0 kts 227°
2026-05-07 02:15 41.78773 -87.74691 625 ft 4 kts 225°
2026-05-07 02:15 41.78747 -87.74724 626 ft 6 kts 223°
2026-05-07 02:16 41.78712 -87.74767 622 ft 7 kts 220°
2026-05-07 02:16 41.78660 -87.74795 621 ft 12 kts 204°
2026-05-07 02:16 41.78562 -87.74911 621 ft 24 kts 229°
2026-05-07 02:16 41.78442 -87.75064 620 ft 23 kts 224°
2026-05-07 02:17 41.78327 -87.75209 622 ft 22 kts 223°
2026-05-07 02:17 41.78216 -87.75350 627 ft 21 kts 219°
2026-05-07 02:17 41.78194 -87.75313 625 ft 7 kts 82°
2026-05-07 02:17 41.78199 -87.75236 625 ft 10 kts 88°
2026-05-07 02:18 41.78201 -87.75129 625 ft 13 kts 90°
2026-05-07 02:18 41.78204 -87.74986 623 ft 18 kts 83°
2026-05-07 02:18 41.78207 -87.74801 621 ft 22 kts 88°
2026-05-07 02:18 41.78209 -87.74579 620 ft 25 kts 98°
2026-05-07 02:19 41.78096 -87.74419 615 ft 25 kts 160°
2026-05-07 02:19 41.78017 -87.74486 617 ft 15 kts 282°
2026-05-07 02:19 41.78054 -87.74558 617 ft 0 kts 312°
2026-05-07 02:19 41.78099 -87.74625 618 ft 43 kts 312°
2026-05-07 02:20 41.78522 -87.75216 623 ft 129 kts 313°
2026-05-07 02:20 41.79226 -87.76207 1176 ft 158 kts 312°
2026-05-07 02:20 41.79977 -87.77302 2361 ft 151 kts 311°
2026-05-07 02:20 41.80690 -87.78350 3450 ft 158 kts 311°
2026-05-07 02:21 41.81513 -87.79557 3898 ft 194 kts 311°
2026-05-07 02:21 41.82539 -87.80997 4210 ft 234 kts 319°
2026-05-07 02:21 41.84118 -87.81796 5073 ft 254 kts 353°
2026-05-07 02:21 41.85856 -87.81404 6323 ft 264 kts 18°
2026-05-07 02:22 41.87375 -87.79910 7407 ft 282 kts 46°
2026-05-07 02:22 41.88271 -87.77513 8482 ft 297 kts 76°
2026-05-07 02:22 41.88297 -87.74725 9619 ft 304 kts 97°
2026-05-07 02:22 41.87870 -87.71913 10533 ft 315 kts 104°
2026-05-07 02:23 41.87296 -87.68947 10893 ft 343 kts 105°
2026-05-07 02:23 41.86666 -87.65784 11583 ft 357 kts 105°
2026-05-07 02:23 41.86036 -87.62519 12459 ft 365 kts 105°
2026-05-07 02:23 41.85416 -87.59176 13357 ft 373 kts 104°
2026-05-07 02:24 41.84803 -87.55758 14184 ft 381 kts 104°
2026-05-07 02:24 41.84189 -87.52255 14977 ft 387 kts 104°
2026-05-07 02:24 41.83574 -87.48708 15789 ft 393 kts 105°
2026-05-07 02:24 41.82961 -87.45154 16583 ft 400 kts 105°
2026-05-07 02:25 41.82331 -87.41496 17375 ft 407 kts 105°
2026-05-07 02:25 41.81687 -87.37765 18160 ft 414 kts 105°
2026-05-07 02:25 41.81028 -87.33963 18826 ft 422 kts 106°
2026-05-07 02:25 41.80358 -87.30100 19453 ft 430 kts 107°
2026-05-07 02:26 41.79671 -87.26152 20082 ft 438 kts 106°
2026-05-07 02:26 41.79124 -87.22080 20701 ft 449 kts 101°
2026-05-07 02:26 41.78710 -87.17895 21324 ft 458 kts 100°
2026-05-07 02:26 41.78342 -87.13615 21951 ft 466 kts 99°
2026-05-07 02:27 41.77982 -87.09272 22569 ft 474 kts 99°
2026-05-07 02:27 41.77610 -87.04851 23195 ft 481 kts 100°
2026-05-07 02:27 41.77217 -87.00356 23770 ft 489 kts 100°
2026-05-07 02:27 41.76807 -86.95809 24334 ft 494 kts 101°
2026-05-07 02:28 41.76383 -86.91223 24953 ft 498 kts 101°
2026-05-07 02:28 41.75949 -86.86605 25562 ft 502 kts 101°
2026-05-07 02:28 41.75512 -86.82008 26124 ft 507 kts 101°
2026-05-07 02:28 41.75061 -86.77301 26675 ft 512 kts 101°
2026-05-07 02:29 41.74603 -86.72552 27223 ft 516 kts 101°
2026-05-07 02:29 41.74140 -86.67757 27762 ft 521 kts 102°
2026-05-07 02:29 41.73672 -86.62923 28292 ft 526 kts 102°
2026-05-07 02:29 41.73197 -86.58047 28802 ft 530 kts 102°
2026-05-07 02:30 41.72718 -86.53132 29285 ft 535 kts 102°
2026-05-07 02:30 41.72232 -86.48178 29780 ft 539 kts 102°
2026-05-07 02:30 41.71746 -86.43236 30229 ft 543 kts 102°
2026-05-07 02:30 41.71248 -86.38201 30634 ft 547 kts 102°
2026-05-07 02:31 41.70745 -86.33141 31051 ft 550 kts 102°
2026-05-07 02:31 41.70239 -86.28059 31452 ft 553 kts 102°
2026-05-07 02:31 41.69726 -86.22944 31825 ft 556 kts 102°
2026-05-07 02:31 41.69208 -86.17807 32171 ft 559 kts 102°
2026-05-07 02:32 41.68684 -86.12633 32507 ft 562 kts 102°
2026-05-07 02:32 41.68158 -86.07449 32936 ft 562 kts 103°
2026-05-07 02:32 41.67630 -86.02269 33439 ft 561 kts 103°
2026-05-07 02:32 41.67102 -85.97108 33923 ft 560 kts 103°
2026-05-07 02:33 41.66570 -85.91939 34294 ft 560 kts 103°
2026-05-07 02:33 41.66037 -85.86788 34653 ft 560 kts 103°
2026-05-07 02:33 41.65501 -85.81635 35033 ft 559 kts 103°
2026-05-07 02:33 41.64965 -85.76496 35431 ft 557 kts 103°
2026-05-07 02:34 41.64433 -85.71426 35807 ft 556 kts 103°
2026-05-07 02:34 41.63887 -85.66247 36156 ft 556 kts 103°
2026-05-07 02:34 41.63345 -85.61136 36477 ft 555 kts 103°
2026-05-07 02:34 41.62808 -85.56088 36823 ft 555 kts 103°
2026-05-07 02:35 41.62263 -85.50984 37167 ft 554 kts 103°
2026-05-07 02:35 41.61717 -85.45891 37511 ft 553 kts 103°
2026-05-07 02:35 41.61170 -85.40812 37848 ft 552 kts 103°
2026-05-07 02:35 41.60620 -85.35733 38178 ft 551 kts 103°
2026-05-07 02:36 41.60070 -85.30666 38566 ft 549 kts 103°
2026-05-07 02:36 41.59520 -85.25617 38867 ft 548 kts 103°
2026-05-07 02:36 41.58968 -85.20582 39019 ft 550 kts 103°
2026-05-07 02:36 41.58408 -85.15508 39001 ft 553 kts 103°
2026-05-07 02:37 41.57287 -85.05380 39000 ft 549 kts 103°
2026-05-07 02:37 41.56174 -84.95383 39007 ft 546 kts 103°
2026-05-07 02:38 41.55052 -84.85403 38999 ft 541 kts 104°
2026-05-07 02:38 41.53923 -84.75463 39015 ft 544 kts 104°
2026-05-07 02:39 41.52763 -84.65372 39026 ft 555 kts 104°
2026-05-07 02:39 41.51579 -84.55120 39010 ft 561 kts 104°
2026-05-07 02:40 41.50394 -84.44881 39007 ft 562 kts 104°
2026-05-07 02:40 41.49188 -84.34561 39009 ft 563 kts 104°
2026-05-07 02:41 41.47971 -84.24245 39003 ft 563 kts 104°
2026-05-07 02:41 41.46742 -84.13913 39003 ft 563 kts 104°
2026-05-07 02:42 41.45505 -84.03594 39003 ft 563 kts 104°
2026-05-07 02:42 41.44260 -83.93295 39001 ft 563 kts 105°
2026-05-07 02:43 41.43012 -83.83036 38994 ft 559 kts 105°
2026-05-07 02:43 41.41766 -83.72862 38994 ft 555 kts 105°
2026-05-07 02:44 41.40511 -83.62725 39005 ft 554 kts 105°
2026-05-07 02:44 41.39240 -83.52539 39010 ft 553 kts 105°
2026-05-07 02:45 41.37987 -83.42557 39013 ft 554 kts 105°
2026-05-07 02:45 41.36705 -83.32425 39011 ft 555 kts 105°
2026-05-07 02:46 41.35412 -83.22275 39009 ft 557 kts 105°
2026-05-07 02:46 41.34105 -83.12082 39008 ft 559 kts 105°
2026-05-07 02:47 41.32794 -83.01937 39003 ft 560 kts 105°
2026-05-07 02:47 41.31463 -82.91708 39007 ft 562 kts 105°
2026-05-07 02:48 41.30117 -82.81441 39001 ft 563 kts 105°
2026-05-07 02:48 41.28990 -82.72899 39003 ft 564 kts 106°
2026-05-07 02:49 41.28303 -82.67724 38499 ft 573 kts 106°
2026-05-07 02:49 41.27600 -82.62473 37539 ft 579 kts 107°
2026-05-07 02:49 41.26893 -82.57191 36688 ft 582 kts 107°
2026-05-07 02:49 41.26179 -82.51868 35857 ft 585 kts 107°
2026-05-07 02:50 41.25461 -82.46524 35043 ft 588 kts 108°
2026-05-07 02:50 41.24737 -82.41152 34260 ft 592 kts 108°
2026-05-07 02:50 41.24016 -82.35830 33418 ft 594 kts 108°
2026-05-07 02:50 41.23281 -82.30422 32553 ft 596 kts 108°
2026-05-07 02:51 41.22542 -82.24997 31704 ft 596 kts 108°
2026-05-07 02:51 41.21802 -82.19582 30914 ft 595 kts 108°
2026-05-07 02:51 41.21067 -82.14207 30369 ft 587 kts 108°
2026-05-07 02:51 41.20343 -82.08908 29881 ft 578 kts 108°
2026-05-07 02:52 41.19627 -82.03694 29327 ft 569 kts 108°
2026-05-07 02:52 41.18916 -81.98558 28751 ft 561 kts 108°
2026-05-07 02:52 41.18209 -81.93486 28156 ft 554 kts 108°
2026-05-07 02:52 41.17509 -81.88493 27585 ft 547 kts 108°
2026-05-07 02:53 41.16814 -81.83553 27028 ft 541 kts 108°
2026-05-07 02:53 41.16125 -81.78675 26499 ft 534 kts 108°
2026-05-07 02:53 41.15444 -81.73862 25961 ft 527 kts 108°
2026-05-07 02:53 41.14769 -81.69105 25432 ft 521 kts 108°
2026-05-07 02:54 41.14101 -81.64406 24929 ft 515 kts 108°
2026-05-07 02:54 41.13447 -81.59823 24426 ft 509 kts 107°
2026-05-07 02:54 41.12790 -81.55231 23939 ft 503 kts 107°
2026-05-07 02:54 41.12139 -81.50697 23411 ft 498 kts 107°
2026-05-07 02:55 41.11492 -81.46204 22862 ft 492 kts 107°
2026-05-07 02:55 41.10853 -81.41775 22321 ft 486 kts 107°
2026-05-07 02:55 41.10219 -81.37395 21787 ft 480 kts 107°
2026-05-07 02:55 41.09589 -81.33060 21268 ft 475 kts 107°
2026-05-07 02:56 41.08968 -81.28787 20773 ft 470 kts 107°
2026-05-07 02:56 41.08357 -81.24586 20541 ft 457 kts 107°
2026-05-07 02:56 41.07620 -81.20596 20486 ft 430 kts 121°
2026-05-07 02:56 41.06417 -81.17102 20520 ft 407 kts 126°
2026-05-07 02:57 41.05224 -81.13782 20493 ft 392 kts 127°
2026-05-07 02:57 41.04067 -81.10579 19891 ft 393 kts 126°
2026-05-07 02:57 41.02867 -81.07273 18929 ft 402 kts 125°
2026-05-07 02:57 41.01656 -81.03910 17966 ft 407 kts 124°
2026-05-07 02:58 41.00444 -81.00505 16916 ft 410 kts 123°
2026-05-07 02:58 40.99233 -80.97078 15888 ft 411 kts 122°
2026-05-07 02:58 40.98028 -80.93658 14918 ft 410 kts 121°
2026-05-07 02:58 40.96825 -80.90244 13953 ft 408 kts 120°
2026-05-07 02:59 40.95630 -80.86854 12903 ft 405 kts 120°
2026-05-07 02:59 40.94445 -80.83502 11926 ft 399 kts 119°
2026-05-07 02:59 40.93287 -80.80230 11311 ft 389 kts 119°
2026-05-07 02:59 40.92146 -80.77016 10781 ft 384 kts 119°
2026-05-07 03:00 40.91055 -80.73887 10327 ft 364 kts 118°
2026-05-07 03:00 40.89981 -80.70939 10043 ft 344 kts 120°
2026-05-07 03:00 40.88996 -80.68184 10018 ft 319 kts 119°
2026-05-07 03:00 40.88082 -80.65604 9948 ft 304 kts 120°
2026-05-07 03:01 40.86877 -80.63340 9827 ft 301 kts 143°
2026-05-07 03:01 40.85329 -80.61503 9706 ft 299 kts 145°
2026-05-07 03:01 40.83760 -80.59689 9513 ft 299 kts 145°
2026-05-07 03:01 40.82224 -80.57907 9315 ft 296 kts 145°
2026-05-07 03:02 40.80692 -80.56118 9121 ft 292 kts 144°
2026-05-07 03:02 40.79182 -80.54345 8979 ft 289 kts 144°
2026-05-07 03:02 40.77596 -80.52831 8896 ft 276 kts 166°
2026-05-07 03:02 40.75757 -80.52543 8650 ft 264 kts 192°
2026-05-07 03:03 40.73897 -80.52748 8126 ft 276 kts 191°
2026-05-07 03:03 40.71974 -80.52933 7753 ft 276 kts 190°
2026-05-07 03:03 40.70080 -80.53098 7478 ft 267 kts 189°
2026-05-07 03:03 40.68265 -80.53246 7221 ft 257 kts 189°
2026-05-07 03:04 40.66476 -80.53394 7016 ft 259 kts 188°
2026-05-07 03:04 40.64677 -80.53541 6811 ft 260 kts 188°
2026-05-07 03:04 40.62862 -80.53689 6582 ft 262 kts 188°
2026-05-07 03:04 40.61033 -80.53834 6350 ft 264 kts 187°
2026-05-07 03:05 40.59211 -80.53977 6103 ft 260 kts 187°
2026-05-07 03:05 40.57424 -80.54117 5874 ft 255 kts 187°
2026-05-07 03:05 40.55655 -80.54256 5657 ft 254 kts 187°
2026-05-07 03:05 40.53893 -80.54394 5447 ft 252 kts 187°
2026-05-07 03:06 40.52177 -80.54493 5211 ft 249 kts 179°
2026-05-07 03:06 40.50559 -80.53757 5051 ft 249 kts 146°
2026-05-07 03:06 40.49516 -80.52011 5000 ft 242 kts 111°
2026-05-07 03:06 40.49251 -80.49858 4888 ft 240 kts 91°
2026-05-07 03:07 40.49250 -80.47664 4593 ft 238 kts 90°
2026-05-07 03:07 40.49226 -80.45502 4258 ft 234 kts 91°
2026-05-07 03:07 40.49172 -80.43401 3930 ft 225 kts 91°
2026-05-07 03:07 40.49114 -80.41405 3623 ft 211 kts 91°
2026-05-07 03:08 40.49061 -80.39555 3361 ft 194 kts 91°
2026-05-07 03:08 40.49014 -80.37857 3087 ft 179 kts 90°
2026-05-07 03:08 40.48971 -80.36315 2859 ft 159 kts 89°
2026-05-07 03:08 40.48934 -80.34945 2648 ft 144 kts 89°
2026-05-07 03:09 40.48899 -80.33680 2475 ft 134 kts 88°
2026-05-07 03:09 40.48866 -80.32452 2294 ft 133 kts 88°
2026-05-07 03:09 40.48830 -80.31240 2095 ft 136 kts 89°
2026-05-07 03:09 40.48802 -80.29983 1880 ft 138 kts 88°
2026-05-07 03:10 40.48769 -80.28744 1683 ft 135 kts 89°
2026-05-07 03:10 40.48736 -80.27523 1544 ft 134 kts 90°
2026-05-07 03:10 40.48708 -80.26302 1336 ft 133 kts 91°
2026-05-07 03:10 40.48670 -80.25087 1166 ft 134 kts 92°
2026-05-07 03:11 40.48644 -80.24054 1142 ft 83 kts 92°
2026-05-07 03:11 40.48634 -80.23584 1133 ft 29 kts 91°
2026-05-07 03:11 40.48625 -80.23319 1132 ft 28 kts 88°
2026-05-07 03:11 40.48663 -80.23080 1136 ft 26 kts 65°
2026-05-07 03:12 40.48735 -80.22948 1141 ft 0 kts
2026-05-07 03:13 40.48763 -80.22953 1142 ft 9 kts 335°
2026-05-07 03:13 40.48783 -80.23053 1140 ft 16 kts 273°
2026-05-07 03:14 40.48786 -80.23235 1137 ft 23 kts 271°
2026-05-07 03:14 40.48794 -80.23446 1137 ft 23 kts 271°
2026-05-07 03:14 40.48803 -80.23847 1141 ft 21 kts 272°
2026-05-07 03:15 40.48846 -80.24002 1144 ft 18 kts 350°
2026-05-07 03:15 40.48968 -80.24002 1147 ft 17 kts
2026-05-07 03:15 40.49086 -80.23996 1148 ft 17 kts
2026-05-07 03:15 40.49195 -80.24006 1147 ft 15 kts 319°
2026-05-07 03:16 40.49243 -80.24121 1148 ft 14 kts 296°
2026-05-07 03:16 40.49293 -80.24144 1150 ft 0 kts 338°